Location: Balsareny
(41.8670°N, 1.8830°E)
Time: 00:57:06
(UTC+02:00)

Envisat - Pass Details

Date: 19 August 2024
Orbit: 762 x 764 km, 98.3° (Epoch: 08 September)

Event Time Altitude Azimuth Distance (km) Brightness Sun altitude
Rises 04:49:14 0° 16° (NNE) 3,234 7.2 -22.5°
Reaches altitude 10° 04:51:34 10° 20° (NNE) 2,304 6.4 -22.2°
Maximum altitude 04:56:36 61° 101° (E) 862 3.3 -21.5°
Enters shadow 04:59:15 27° 173° (S) 1,422 4.1 -21.1°
